Location: Powder Track
(41.8531°N, 72.3584°W)
Time: 23:53:56
(UTC+00:00)

Vanguard 2 Rocket - Pass Details

Date: 08 August 2021
Orbit: 556 x 3324 km, 32.9° (Epoch: 22 September)

Event Time Altitude Azimuth Distance (km) Brightness Sun altitude
Rises 14:05:36 0° 257° (WSW) 2,784 9.1 45.4°
Reaches altitude 10° 14:08:52 10° 228° (SW) 1,825 8.4 46.0°
Maximum altitude 14:10:48 13° 198° (SSW) 1,651 8.5 46.3°
Drops below altitude 10° 14:12:48 10° 168° (SSE) 1,915 9.1 46.7°
Sets 14:16:26 0° 141° (SE) 3,056 10.2 47.3°
